Rural Retreat, VA

7:54 PM EST on December 07, 2016 (GMT -0500)
Mountain Empire

Weather History for KMKJ - August, 2014

Change the Weather History Date:

Wednesday, August 20, 2014

  Actual Average (KBLF) Record (KBLF)
Temperature  
Mean Temperature 72 °F 72 °F  
Max Temperature 80 °F 81 °F 91 °F (1983)
Min Temperature 64 °F 64 °F 50 °F (1981)
Degree Days  
Heating Degree Days 0 0  
Month to date heating degree days 0  
Since 1 June heating degree days 24  
Since 1 July heating degree days 2  
Cooling Degree Days 7 7  
Month to date cooling degree days 157  
Year to date cooling degree days 662  
Since 1 June cooling degree days 571  
Growing Degree Days 22 (Base 50)    
Moisture  
Dew Point 66 °F    
Average Humidity 85    
Maximum Humidity 97    
Minimum Humidity 65    
Precipitation  
Precipitation 0.40 in 0.10 in 0.88 in (1986)
Month to date precipitation 2.20  
Year to date precipitation 27.33  
Snow  
Snow 0.00 in - - ()
Month to date snowfall  
Since 1 June snowfall  
Since 1 July snowfall  
Snow Depth -    
Sea Level Pressure  
Sea Level Pressure 30.11 in    
Wind  
Wind Speed 5 mph (WSW)    
Max Wind Speed 17 mph    
Max Gust Speed 34 mph    
Visibility 7 miles    
Events Fog , Rain , Thunderstorm    
T = Trace of Precipitation, MM = Missing Value Source: NWS Daily Summary

Daily Weather History Graph

Daily Weather History Graph

Search for Another Location

Airport or City:

Trip Planner

Search our weather history database for the weather conditions in past years. The results will help you decide how hot, cold, wet, or windy it might be!

Date:

Astronomy

Aug. 20, 2014 Rise Set
Actual Time 6:46 AM EDT 8:10 PM EDT
Civil Twilight 6:19 AM EDT 8:37 PM EDT
Nautical Twilight 5:46 AM EDT 9:10 PM EDT
Astronomical Twilight 5:12 AM EDT 9:44 PM EDT
Moon 2:27 AM EDT (8/20) 4:51 PM EDT (8/20)
Length of Visible Light 14h 18m
Length of Day
13h 23m
Waning Crescent, 21% of the Moon is Illuminated
Aug 20
Waning Crescent
Aug 25
New
Sep 2
First Quarter
Sep 8
Full
Sep 15
Last Quarter

Hourly Weather History & Observations

Time (EDT) Temp. Heat Index Dew Point Humidity Pressure Visibility Wind Dir Wind Speed Gust Speed Precip Events Conditions
12:15 AM 65.5 °F - 64.2 °F 96% 30.04 in 0.2 mi Calm Calm - N/A Fog Fog
12:35 AM 65.3 °F - 64.2 °F 96% 30.05 in 0.8 mi Calm Calm - N/A   Overcast
12:55 AM 65.3 °F - 64.2 °F 96% 30.05 in 0.2 mi Calm Calm - N/A Fog Fog
1:35 AM 64.8 °F - 63.7 °F 96% 30.05 in 0.2 mi Calm Calm - N/A Fog Fog
1:55 AM 64.9 °F - 63.9 °F 96% 30.05 in 0.2 mi Calm Calm - N/A Fog Fog
2:15 AM 64.4 °F - 63.3 °F 96% 30.05 in 0.5 mi Calm Calm - N/A Fog Fog
2:35 AM 64.2 °F - 63.0 °F 96% 30.05 in 2.0 mi Calm Calm - N/A   Mostly Cloudy
2:55 AM 64.0 °F - 62.8 °F 96% 30.05 in 0.2 mi Calm Calm - N/A Fog Fog
3:15 AM 65.3 °F - 63.9 °F 95% 30.05 in 5.0 mi West 3.5 mph - N/A   Overcast
3:35 AM 64.6 °F - 63.5 °F 96% 30.04 in 3.0 mi West 3.5 mph - N/A   Overcast
3:55 AM 64.8 °F - 63.7 °F 96% 30.04 in 5.0 mi West 3.5 mph - N/A   Scattered Clouds
4:15 AM 64.6 °F - 63.5 °F 96% 30.04 in 0.8 mi West 4.6 mph - N/A   Overcast
4:35 AM 64.9 °F - 63.9 °F 96% 30.05 in 0.8 mi West 3.5 mph - N/A   Overcast
4:55 AM 66.2 °F - 65.3 °F 97% 30.05 in 5.0 mi West 3.5 mph - N/A   Overcast
5:15 AM 66.2 °F - 65.3 °F 97% 30.06 in 5.0 mi West 4.6 mph - N/A   Overcast
5:35 AM 66.4 °F - 65.3 °F 96% 30.06 in 5.0 mi WSW 4.6 mph - N/A   Overcast
5:55 AM 67.1 °F - 65.8 °F 96% 30.07 in 5.0 mi WSW 6.9 mph - N/A   Overcast
6:15 AM 67.5 °F - 66.2 °F 96% 30.07 in 5.0 mi WSW 5.8 mph - N/A   Overcast
6:35 AM 67.3 °F - 66.2 °F 96% 30.08 in 5.0 mi West 8.1 mph - N/A   Overcast
6:55 AM 67.3 °F - 66.2 °F 96% 30.08 in 3.0 mi West 6.9 mph - N/A Thunderstorm Overcast
7:15 AM 67.6 °F - 66.4 °F 96% 30.09 in 3.0 mi West 6.9 mph - N/A   Overcast
7:35 AM 68.4 °F - 66.7 °F 95% 30.09 in 3.0 mi West 5.8 mph - N/A   Overcast
7:55 AM 68.9 °F - 67.1 °F 94% 30.09 in 3.0 mi West 5.8 mph - N/A   Overcast
8:15 AM 69.3 °F - 67.6 °F 95% 30.10 in 2.5 mi West 8.1 mph - N/A Thunderstorm Overcast
8:35 AM 69.3 °F - 67.6 °F 95% 30.11 in 2.5 mi West 6.9 mph - N/A Thunderstorm Overcast
8:55 AM 69.4 °F - 68.0 °F 95% 30.13 in 2.5 mi West 6.9 mph - N/A Thunderstorm Overcast
9:15 AM 65.8 °F - 61.7 °F 86% 30.15 in 1.2 mi NE 3.5 mph 34.5 mph 0.36 in Rain , Thunderstorm Heavy Thunderstorms and Rain
9:35 AM 64.6 °F - 62.6 °F 93% 30.12 in 7.0 mi SSE 4.6 mph - 0.39 in Rain , Thunderstorm Light Thunderstorms and Rain
9:55 AM 64.6 °F - 62.1 °F 92% 30.12 in 10.0 mi Calm Calm - 0.40 in Thunderstorm Overcast
10:15 AM 65.7 °F - 63.3 °F 92% 30.13 in 10.0 mi NW 3.5 mph - N/A   Scattered Clouds
10:35 AM 66.4 °F - 64.2 °F 93% 30.13 in 10.0 mi WSW 3.5 mph - N/A   Scattered Clouds
10:55 AM 68.5 °F - 65.1 °F 89% 30.14 in 10.0 mi West 4.6 mph - N/A   Mostly Cloudy
11:15 AM 70.3 °F - 64.6 °F 82% 30.14 in 10.0 mi WSW 5.8 mph - N/A   Overcast
11:35 AM 72.9 °F - 65.8 °F 79% 30.13 in 10.0 mi SW 5.8 mph - N/A   Scattered Clouds
11:55 AM 73.2 °F - 65.7 °F 77% 30.13 in 10.0 mi WNW 10.4 mph - N/A   Clear
12:15 PM 72.0 °F - 65.3 °F 79% 30.13 in 10.0 mi WNW 8.1 mph - N/A   Clear
12:35 PM 73.2 °F - 66.0 °F 78% 30.13 in 10.0 mi West 9.2 mph - N/A   Clear
12:55 PM 74.8 °F - 66.9 °F 76% 30.12 in 10.0 mi WSW 9.2 mph - N/A   Clear
1:15 PM 76.6 °F - 65.5 °F 68% 30.12 in 10.0 mi WSW 11.5 mph - N/A   Clear
1:35 PM 77.2 °F - 65.7 °F 67% 30.12 in 10.0 mi WSW 9.2 mph 17.3 mph N/A   Clear
1:55 PM 78.6 °F - 67.6 °F 69% 30.12 in 10.0 mi WSW 13.8 mph - N/A   Clear
2:15 PM 79.5 °F - 68.2 °F 68% 30.12 in 10.0 mi SW 10.4 mph 16.1 mph N/A   Clear
2:35 PM 79.9 °F - 68.4 °F 68% 30.12 in 10.0 mi WSW 10.4 mph 19.6 mph N/A   Scattered Clouds
2:55 PM 80.1 °F 82.4 °F 67.3 °F 65% 30.12 in 10.0 mi West 13.8 mph 23.0 mph N/A   Scattered Clouds
3:15 PM 79.9 °F - 67.6 °F 66% 30.11 in 10.0 mi WSW 11.5 mph - N/A   Scattered Clouds
3:35 PM 80.6 °F 83.5 °F 68.5 °F 67% 30.11 in 10.0 mi SW 10.4 mph - N/A   Mostly Cloudy
3:55 PM 80.2 °F 83.1 °F 68.9 °F 68% 30.11 in 10.0 mi WSW 10.4 mph - N/A   Mostly Cloudy
4:15 PM 79.9 °F - 68.9 °F 69% 30.10 in 10.0 mi WSW 12.7 mph 16.1 mph N/A   Scattered Clouds
4:55 PM 80.4 °F 83.5 °F 69.3 °F 69% 30.10 in 10.0 mi WSW 13.8 mph - N/A   Mostly Cloudy
5:15 PM 80.2 °F 83.1 °F 68.9 °F 68% 30.10 in 10.0 mi WSW 12.7 mph - N/A   Mostly Cloudy
5:35 PM 80.4 °F 83.5 °F 69.4 °F 69% 30.09 in 10.0 mi WSW 10.4 mph - N/A   Mostly Cloudy
5:55 PM 78.8 °F - 69.3 °F 72% 30.09 in 10.0 mi SW 10.4 mph - N/A   Scattered Clouds
6:15 PM 77.9 °F - 69.3 °F 75% 30.11 in 10.0 mi WSW 6.9 mph - N/A   Scattered Clouds
6:35 PM 77.9 °F - 69.3 °F 75% 30.11 in 10.0 mi WSW 8.1 mph - N/A   Scattered Clouds
6:55 PM 77.0 °F - 69.3 °F 77% 30.12 in 10.0 mi SW 9.2 mph - N/A   Clear
7:15 PM 76.1 °F - 68.9 °F 78% 30.13 in 10.0 mi WSW 9.2 mph - N/A   Clear
7:35 PM 75.2 °F - 68.9 °F 81% 30.12 in 10.0 mi WSW 6.9 mph - N/A   Clear
7:55 PM 74.3 °F - 68.9 °F 83% 30.11 in 10.0 mi SW 4.6 mph - N/A   Clear
8:15 PM 73.4 °F - 69.3 °F 87% 30.13 in 7.0 mi SW 4.6 mph - N/A   Clear
8:35 PM 72.7 °F - 69.1 °F 88% 30.14 in 7.0 mi WSW 4.6 mph - N/A   Clear
8:55 PM 73.0 °F - 69.6 °F 89% 30.16 in 7.0 mi WSW 8.1 mph - N/A   Scattered Clouds
9:15 PM 72.7 °F - 69.8 °F 91% 30.17 in 7.0 mi WSW 6.9 mph - N/A   Scattered Clouds
9:35 PM 72.7 °F - 69.8 °F 91% 30.18 in 7.0 mi WSW 8.1 mph - N/A   Clear
9:55 PM 73.2 °F - 69.8 °F 89% 30.18 in 7.0 mi WSW 11.5 mph 17.3 mph N/A   Scattered Clouds
10:15 PM 73.4 °F - 68.9 °F 86% 30.18 in 10.0 mi WSW 17.3 mph 24.2 mph N/A   Mostly Cloudy
10:35 PM 71.2 °F - 67.1 °F 87% 30.17 in 10.0 mi WSW 15.0 mph 23.0 mph N/A   Scattered Clouds
10:55 PM 70.5 °F - 66.2 °F 86% 30.16 in 10.0 mi WSW 13.8 mph - N/A   Scattered Clouds
11:15 PM 69.8 °F - 65.1 °F 85% 30.16 in 10.0 mi West 10.4 mph - N/A   Clear
11:35 PM 69.4 °F - 65.1 °F 86% 30.16 in 10.0 mi West 10.4 mph - N/A   Clear
11:55 PM 68.9 °F - 64.6 °F 86% 30.16 in 10.0 mi West 9.2 mph - N/A   Clear